TimeCST,TemperatureF,Dew PointF,Humidity,Sea Level PressureIn,VisibilityMPH,Wind Direction,Wind SpeedMPH,Gust SpeedMPH,PrecipitationIn,Events,Conditions,WindDirDegrees,DateUTC
12:54 AM,33.1,24.1,70,30.05,10.0,WNW,6.9,17.3,N/A,,Partly Cloudy,300,2013-01-31 06:54:00
1:54 AM,32.0,23.0,69,30.06,10.0,WNW,5.8,-,N/A,,Clear,290,2013-01-31 07:54:00
2:54 AM,30.9,23.0,72,30.06,10.0,West,3.5,-,N/A,,Clear,280,2013-01-31 08:54:00
3:54 AM,30.0,23.0,75,30.06,10.0,SW,4.6,-,N/A,,Clear,230,2013-01-31 09:54:00
4:54 AM,30.0,23.0,75,30.07,10.0,SW,5.8,-,N/A,,Clear,220,2013-01-31 10:54:00
5:54 AM,30.2,24.8,80,30.10,10.0,SW,4.6,-,N/A,,Clear,230,2013-01-31 11:54:00
6:54 AM,30.9,24.1,76,30.14,10.0,Calm,Calm,-,N/A,,Clear,0,2013-01-31 12:54:00
7:54 AM,34.0,26.1,73,30.17,10.0,West,4.6,-,N/A,,Clear,260,2013-01-31 13:54:00
8:54 AM,36.0,25.0,64,30.19,10.0,West,5.8,-,N/A,,Clear,280,2013-01-31 14:54:00
9:54 AM,39.9,26.1,58,30.19,10.0,SW,6.9,25.3,N/A,,Clear,230,2013-01-31 15:54:00
10:54 AM,42.1,25.0,51,30.19,10.0,SW,9.2,18.4,N/A,,Clear,230,2013-01-31 16:54:00
11:54 AM,46.9,25.0,42,30.15,10.0,WSW,9.2,-,N/A,,Clear,240,2013-01-31 17:54:00
12:54 PM,50.0,27.0,41,30.12,10.0,SW,11.5,18.4,N/A,,Clear,230,2013-01-31 18:54:00
1:54 PM,52.0,30.0,43,30.09,10.0,SW,11.5,19.6,N/A,,Clear,230,2013-01-31 19:54:00
2:54 PM,54.0,30.9,41,30.07,10.0,SW,12.7,20.7,N/A,,Partly Cloudy,220,2013-01-31 20:54:00
3:54 PM,54.0,28.9,38,30.09,10.0,SW,13.8,20.7,N/A,,Partly Cloudy,220,2013-01-31 21:54:00
4:54 PM,53.1,30.0,41,30.09,10.0,SW,11.5,-,N/A,,Partly Cloudy,230,2013-01-31 22:54:00
5:54 PM,51.1,30.0,44,30.09,10.0,SW,9.2,-,N/A,,Scattered Clouds,230,2013-01-31 23:54:00
6:54 PM,48.9,30.0,48,30.12,10.0,SW,4.6,-,N/A,,Scattered Clouds,230,2013-02-01 00:54:00
7:54 PM,50.0,30.9,48,30.17,10.0,NNW,15.0,-,N/A,,Scattered Clouds,330,2013-02-01 01:54:00
8:01 PM,48.2,30.2,50,30.17,10.0,NNW,16.1,23.0,N/A,,Scattered Clouds,340,2013-02-01 02:01:00
8:54 PM,46.9,28.9,50,30.21,10.0,NNW,16.1,23.0,N/A,,Mostly Cloudy,340,2013-02-01 02:54:00
9:54 PM,39.0,28.0,65,30.27,10.0,NNW,12.7,26.5,N/A,,Mostly Cloudy,340,2013-02-01 03:54:00
10:54 PM,37.0,28.0,70,30.32,10.0,North,16.1,21.9,N/A,,Overcast,360,2013-02-01 04:54:00
11:52 PM,33.8,17.6,52,30.34,10.0,NNW,13.8,-,N/A,,Mostly Cloudy,340,2013-02-01 05:52:00
11:54 PM,33.8,17.6,52,30.34,10.0,NNW,13.8,-,N/A,,Mostly Cloudy,340,2013-02-01 05:54:00